Weather reports worldwide

Advertisment
Firenze, Italy (16171): temperature & dewpoint: 15.05.2019 16:00:00 - 21.05.2019 16:00:00 (CEST)Firenze, Italy (16171): reduced air pressure: 15.05.2019 16:00:00 - 21.05.2019 16:00:00 (CEST)Firenze, Italy (16171): precipitation: 15.05.2019 16:00:00 - 21.05.2019 16:00:00 (CEST)
Date & Time tt [°C] td [°C] ppp [hPa] rr [mm]
21.05.2019 16:00:00 - - - -
21.05.2019 15:00:00 20,5 17,8 1013,2 -
21.05.2019 14:00:00 19,1 17,9 1013,1 -
21.05.2019 13:00:00 17,1 16,6 1012,9 -
21.05.2019 12:00:00 16,2 16,1 1012,6 -
21.05.2019 11:00:00 15,5 15,4 1012,1 -
21.05.2019 10:00:00 14,5 14,4 1011,9 -
21.05.2019 09:00:00 14,0 13,9 1011,6 -
21.05.2019 08:00:00 13,8 13,7 1011,2 -
21.05.2019 07:00:00 13,4 13,3 1010,8 -
21.05.2019 06:00:00 13,4 13,3 1010,4 -
21.05.2019 05:00:00 13,2 13,1 1010,4 -
21.05.2019 04:00:00 13,3 13,2 1010,6 -
21.05.2019 03:00:00 13,3 13,2 1010,5 -
21.05.2019 02:00:00 13,4 13,3 1010,5 -
21.05.2019 01:00:00 13,7 13,6 1010,7 -
21.05.2019 00:00:00 13,8 13,7 1010,5 -
20.05.2019 23:00:00 14,4 14,3 1010,2 -
20.05.2019 22:00:00 14,3 14,2 1010,0 -
20.05.2019 21:00:00 14,4 14,2 1009,5 -
20.05.2019 20:00:00 14,8 14,4 1009,4 -
20.05.2019 19:00:00 15,4 14,5 1009,0 -
20.05.2019 18:00:00 16,0 14,1 1009,1 -
20.05.2019 17:00:00 17,3 12,6 1008,4 -
20.05.2019 16:00:00 18,5 16,8 1007,7 -
20.05.2019 15:00:00 17,2 16,3 1008,1 -
20.05.2019 14:00:00 15,4 14,7 1008,3 -
20.05.2019 13:00:00 16,3 14,6 1008,5 -
20.05.2019 12:00:00 17,6 15,9 1007,7 -
20.05.2019 11:00:00 17,8 15,7 1007,7 -
20.05.2019 10:00:00 16,0 14,8 1007,6 -
20.05.2019 09:00:00 14,3 13,9 1007,4 -
20.05.2019 08:00:00 12,9 12,7 1007,1 -
20.05.2019 07:00:00 12,3 12,1 1007,0 -
20.05.2019 06:00:00 12,6 12,6 1006,8 -
20.05.2019 05:00:00 12,9 12,8 1007,0 -
20.05.2019 04:00:00 13,1 13,0 1007,0 -
20.05.2019 03:00:00 13,3 13,1 1007,1 -
20.05.2019 02:00:00 13,7 13,3 1006,9 -
20.05.2019 01:00:00 14,1 13,6 1007,0 -
20.05.2019 00:00:00 14,1 13,4 1007,0 -
19.05.2019 23:00:00 14,2 13,4 1007,0 -
19.05.2019 22:00:00 14,9 13,9 1006,8 -
19.05.2019 21:00:00 15,1 13,9 1006,1 -
19.05.2019 20:00:00 15,7 14,5 1005,8 -
19.05.2019 19:00:00 15,6 15,1 1005,2 -
19.05.2019 18:00:00 16,0 15,6 1005,3 -
19.05.2019 17:00:00 16,3 15,3 1005,3 -
19.05.2019 16:00:00 17,4 16,2 1005,0 -
19.05.2019 15:00:00 16,5 16,0 1004,9 -
19.05.2019 14:00:00 15,8 15,3 1004,8 -
19.05.2019 13:00:00 15,7 15,6 1004,6 -
19.05.2019 12:00:00 15,7 15,6 1004,6 -
19.05.2019 11:00:00 15,0 14,9 1004,4 -
19.05.2019 10:00:00 14,5 14,4 1004,4 -
19.05.2019 09:00:00 14,4 14,3 1004,4 -
19.05.2019 08:00:00 14,1 14,0 1004,4 -
19.05.2019 07:00:00 14,1 14,0 1004,5 -
19.05.2019 06:00:00 14,4 14,3 1004,5 -
19.05.2019 05:00:00 14,5 14,4 1004,6 -
19.05.2019 04:00:00 14,5 14,4 1004,9 -
19.05.2019 03:00:00 14,4 14,3 1005,2 -
19.05.2019 02:00:00 14,6 14,5 1005,6 -
19.05.2019 01:00:00 14,7 14,6 1005,9 -
19.05.2019 00:00:00 15,0 14,9 1006,0 -
18.05.2019 23:00:00 15,1 15,0 1006,1 -
18.05.2019 22:00:00 15,3 15,1 1005,9 -
18.05.2019 21:00:00 15,7 15,5 1005,6 -
18.05.2019 20:00:00 16,1 15,6 1005,2 -
18.05.2019 19:00:00 16,5 16,0 1004,7 -
18.05.2019 18:00:00 16,4 15,9 1004,7 -
18.05.2019 17:00:00 15,6 14,6 1004,5 -
18.05.2019 16:00:00 18,4 16,3 1004,2 -
18.05.2019 15:00:00 18,3 15,8 1004,0 -
18.05.2019 14:00:00 17,5 16,1 1004,5 -
18.05.2019 13:00:00 16,6 15,6 1004,6 -
18.05.2019 12:00:00 15,8 14,9 1004,2 -
18.05.2019 11:00:00 15,0 14,3 1004,1 -
18.05.2019 10:00:00 15,4 14,0 1004,0 -
18.05.2019 09:00:00 16,4 14,7 1003,8 -
18.05.2019 08:00:00 15,8 14,1 1003,6 0,0
18.05.2019 07:00:00 15,3 13,8 1003,6 -
18.05.2019 06:00:00 15,4 13,9 1003,9 -
18.05.2019 05:00:00 15,3 13,8 1004,4 -
18.05.2019 04:00:00 14,7 13,4 1005,4 -
18.05.2019 03:00:00 15,3 14,4 1006,0 -
18.05.2019 02:00:00 15,7 14,7 1006,4 -
18.05.2019 01:00:00 16,2 15,0 1007,1 -
18.05.2019 00:00:00 16,6 14,2 1007,6 -
17.05.2019 23:00:00 17,1 13,7 1007,7 -
17.05.2019 22:00:00 17,4 13,4 1007,6 -
17.05.2019 21:00:00 18,1 13,1 1007,1 -
17.05.2019 20:00:00 19,1 13,4 1006,9 -
17.05.2019 19:00:00 20,6 13,7 1006,6 -
17.05.2019 18:00:00 21,7 12,8 1006,6 -
17.05.2019 17:00:00 21,6 12,9 1007,1 -
17.05.2019 16:00:00 22,0 11,9 1007,5 -
17.05.2019 15:00:00 22,9 13,0 1007,9 -
17.05.2019 14:00:00 22,2 11,8 1008,2 -
17.05.2019 13:00:00 21,7 13,0 1008,6 -
17.05.2019 12:00:00 19,3 12,9 1009,2 -
17.05.2019 11:00:00 17,5 12,6 1009,5 -
17.05.2019 10:00:00 15,2 13,0 1009,9 -
17.05.2019 09:00:00 13,0 11,5 1010,6 -
17.05.2019 08:00:00 10,9 9,6 1010,5 -
17.05.2019 07:00:00 9,5 8,6 1010,7 -
17.05.2019 06:00:00 9,4 8,3 1010,7 -
17.05.2019 05:00:00 9,4 8,0 1010,8 -
17.05.2019 04:00:00 10,2 8,8 1010,7 -
17.05.2019 03:00:00 10,6 9,0 1010,8 -
17.05.2019 02:00:00 11,4 9,3 1011,3 -
17.05.2019 01:00:00 11,9 9,1 1011,7 -
17.05.2019 00:00:00 12,6 8,2 1011,7 -
16.05.2019 23:00:00 14,2 9,2 1011,7 -
16.05.2019 22:00:00 15,4 9,5 1011,1 -
16.05.2019 21:00:00 17,2 10,5 1010,1 -
16.05.2019 20:00:00 19,3 11,8 1009,7 -
16.05.2019 19:00:00 20,3 10,4 1009,1 -
16.05.2019 18:00:00 21,0 11,3 1009,4 -
16.05.2019 17:00:00 21,2 11,8 1009,6 -
16.05.2019 16:00:00 - - - -
16.05.2019 15:00:00 21,4 12,2 1010,5 -
16.05.2019 14:00:00 20,0 11,2 1011,1 -
16.05.2019 13:00:00 19,2 11,4 1011,6 -
16.05.2019 12:00:00 17,8 10,4 1011,8 -
16.05.2019 11:00:00 16,3 9,7 1012,3 -
16.05.2019 10:00:00 15,5 9,3 1012,8 -
16.05.2019 09:00:00 14,0 8,6 1012,9 -
16.05.2019 08:00:00 13,7 8,7 1013,0 -
16.05.2019 07:00:00 11,5 7,2 1012,8 -
16.05.2019 06:00:00 11,4 6,9 1012,4 -
16.05.2019 05:00:00 11,2 6,7 1012,5 -
16.05.2019 04:00:00 11,0 6,5 1012,9 -
16.05.2019 03:00:00 10,9 6,4 1013,3 -
16.05.2019 02:00:00 11,2 6,1 1013,7 -
16.05.2019 01:00:00 11,5 6,6 1013,9 -
16.05.2019 00:00:00 11,6 6,3 1014,0 -
15.05.2019 23:00:00 11,8 6,9 1013,9 -
15.05.2019 22:00:00 12,1 6,9 1013,6 -
15.05.2019 21:00:00 12,6 6,4 1012,9 -
15.05.2019 20:00:00 13,5 7,0 1012,7 -
15.05.2019 19:00:00 13,8 7,3 1012,6 -
15.05.2019 18:00:00 13,9 7,4 1012,8 -
15.05.2019 17:00:00 13,4 7,1 1012,4 -
15.05.2019 16:00:00 13,9 7,8 1012,8 -

tt = temperature
td = dewpoint
ppp = reduced air pressure
rr = precipitation

Next stations